DW6936 Weather Reports


Display with metric or nautical units.
time (UTC)temp
F
wind
direction
speed
MPH
gust
MPH
rain 1hr
in
rain 24hr
in
rain mn
in
humidity
%
barometer
mb
20170328012015 52 206 4.0 8.0 0.00 0.21 0.03 74 1019.5
20170328003014 55 194 3.0 9.0 0.00 0.24 0.03 69 1019.3
20170328002013 55 200 4.0 7.0 0.00 0.24 0.03 69 1019.2
20170328001013 56 215 4.0 9.0 0.00 0.24 0.03 69 1019.2
20170327235013 54 204 5.0 10.0 0.00 0.26 0.03 71 1019.2
20170327234012 54 208 3.0 8.0 0.00 0.26 0.03 72 1019.2
20170327233012 54 207 5.0 10.0 0.00 0.26 0.03 73 1019.2
20170327225010 54 195 4.0 13.0 0.00 0.27 0.03 73 1019.2
20170327223010 53 172 4.0 10.0 0.00 0.27 0.03 75 1019.3
20170327215009 53 209 9.0 13.0 0.00 0.27 0.03 76 1019.3
20170327214009 53 208 8.0 13.0 0.00 0.27 0.03 77 1019.1
20170327213009 53 206 4.0 11.0 0.00 0.27 0.03 76 1019.0
20170327211019 54 224 7.0 14.0 0.00 0.27 0.03 76 1018.8
20170327203019 54 219 9.0 12.0 0.00 0.27 0.03 77 1018.2
20170327201018 52 146 7.0 10.0 0.00 0.27 0.03 80 1017.9
20170327191017 50 201 8.0 16.0 0.00 0.32 0.03 80 1017.6
20170327185015 50 169 4.0 15.0 0.00 0.34 0.03 82 1017.2
20170327184015 50 128 11.0 13.0 0.00 0.35 0.03 82 1017.1
20170327165012 47 131 6.0 10.0 0.00 0.45 0.03 89 1015.5
20170327163012 46 150 6.0 11.0 0.00 0.48 0.03 90 1015.2
20170327162012 46 158 7.0 11.0 0.00 0.48 0.03 91 1015.0
20170327160011 46 137 4.0 8.0 0.00 0.49 0.03 91 1014.7
20170327155011 46 200 5.0 10.0 0.00 0.50 0.03 91 1014.5
20170327154011 45 149 3.0 9.0 0.00 0.50 0.03 92 1014.2
20170327151010 45 129 1.0 9.0 0.01 0.50 0.03 94 1013.8
20170327150010 45 129 3.0 10.0 0.01 0.50 0.03 94 1013.6
20170327145009 45 140 6.0 7.0 0.01 0.50 0.03 95 1013.5
20170327135007 44 121 0.0 6.0 0.00 0.49 0.02 95 1013.0
20170327131007 45 106 0.0 5.0 0.00 0.49 0.02 95 1012.7
20170327124006 44 125 2.0 5.0 0.01 0.49 0.02 96 1012.2
20170327113003 44 131 2.0 6.0 0.00 0.48 0.01 96 1011.4
20170327110003 44 132 3.0 6.0 0.01 0.48 0.01 96 1011.2
20170327104002 44 125 5.0 9.0 0.01 0.48 0.01 96 1011.0
20170327102002 44 119 4.0 7.0 0.00 0.47 0.00 96 1011.0
20170327100001 43 114 2.0 4.0 0.00 0.47 0.00 96 1010.8
20170327095001 43 53 1.0 4.0 0.00 0.47 0.00 96 1010.8
20170327093001 43 47 0.0 2.0 0.00 0.47 0.00 96 1010.7
20170327085022 43 53 1.0 4.0 0.00 0.47 0.00 96 1010.1
20170327084022 43 54 2.0 5.0 0.00 0.47 0.00 96 1010.1
20170327083022 43 54 3.0 3.0 0.00 0.47 0.00 96 1009.9
20170327080020 44 57 1.0 3.0 0.00 0.47 0.00 96 1009.5
20170327074020 44 55 1.0 5.0 0.01 0.47 0.00 96 1009.3
20170327065018 44 59 0.0 3.0 0.00 0.46 0.46 96 1008.9
20170327062018 44 17 0.0 5.0 0.00 0.46 0.46 96 1008.7
20170327051016 44 62 2.0 3.0 0.02 0.45 0.45 95 1007.9
20170327043015 44 58 0.0 2.0 0.02 0.44 0.44 95 1007.6
20170327042015 44 58 2.0 3.0 0.02 0.43 0.43 95 1007.5
20170327034013 44 54 0.0 5.0 0.06 0.42 0.42 95 1007.0
20170327030012 45 56 0.0 2.0 0.07 0.39 0.39 94 1007.0
20170327025012 45 56 1.0 4.0 0.07 0.38 0.38 94 1006.9